Flag for Croatia Weather past 2 weeks in Dubrovnik, Croatia

Now
72 °F

Scattered clouds.


Feels Like: 71 °F
Forecast: 54 / 63 °F
Wind: 3 mph from Northeast

Location: Dubrovnik / Cilipi

Current Time: Sep 22, 2014 at 9:09:33 AM

Latest Report: Sep 22, 2014 at 8:30 AM


Visibility: N/A

Pressure: 29.89 "Hg

Humidity: 83%

Dew point: 66 °F

Location of DubrovnikLocation

Historic Weather in Dubrovnik — Graph

°F

Dubrovnik temperature yesterday

Maximum temperature yesterday: 75 °F (at 11:30 AM)
Minimum temperature yesterday: 66 °F (at 12:00 AM)
Average temperature yesterday: 70 °F

Past Weeks' High & Low Weather Summary

 TemperatureHumidityPressure
High77 °F (Sep 7, 12:00 PM)100% (Sep 11, 7:30 AM)30.18 "Hg (Sep 11, 7:30 AM)
Low57 °F (Sep 15, 4:00 AM)50% (Sep 14, 1:30 PM)29.83 "Hg (Sep 11, 9:00 AM)
Average69 °F79%29.98 "Hg
* Reported Sep 7 8:00 AM — Sep 22 8:00 AM, Dubrovnik, Weather by CustomWeather, © 2014

Note: Actual official high and low records may vary slightly from our data, if they occured in-between our weather recording intervals... More about our weather records

Advertising

Dubrovnik weather history for previous 24 hours

 ConditionsComfort  
Time TempWeatherWind HumidityBarometerVisibility
8:00 AM
Sep 22
72 °FScattered clouds.3 mph83%29.86 "HgN/A
7:30 AM70 °FPassing clouds.3 mph88%29.86 "HgN/A
7:00 AM68 °FPassing clouds.6 mph88%29.86 "HgN/A
6:30 AM64 °FFog.8 mph100%29.86 "Hg0 mi
6:00 AM68 °FPassing clouds.7 mph88%29.86 "HgN/A
5:30 AM68 °FPassing clouds.5 mph88%29.86 "HgN/A
5:00 AM68 °FPassing clouds.5 mph88%29.86 "HgN/A
4:30 AM68 °FPassing clouds.5 mph94%29.89 "HgN/A
4:00 AM68 °FPassing clouds.7 mph94%29.89 "HgN/A
3:30 AM68 °FPassing clouds.5 mph94%29.89 "HgN/A
3:00 AM70 °FPassing clouds.7 mph88%29.89 "HgN/A
2:00 AM68 °FLight rain. Partly cloudy.6 mph94%29.92 "Hg6 mi
1:30 AM68 °FPassing clouds.8 mph94%29.92 "Hg6 mi
1:00 AM70 °FPassing clouds.6 mph94%29.95 "Hg6 mi
12:30 AM68 °FLight rain. Partly cloudy.7 mph94%29.95 "Hg6 mi
12:00 AM68 °FPartly cloudy.5 mph94%29.95 "HgN/A
11:30 PM
Sep 21
70 °FPassing clouds.7 mph94%29.95 "HgN/A
11:00 PM70 °FPassing clouds.6 mph94%29.95 "HgN/A
10:30 PM68 °FPassing clouds.6 mph100%29.95 "HgN/A
10:00 PM68 °FPassing clouds.8 mph100%29.95 "HgN/A
9:30 PM70 °FPassing clouds.8 mph88%29.95 "HgN/A
9:00 PM70 °FPassing clouds.5 mph88%29.95 "HgN/A
8:30 PM70 °FPassing clouds.5 mph94%29.95 "HgN/A
8:00 PM72 °FPassing clouds.2 mph88%29.98 "HgN/A
7:30 PM70 °FScattered clouds.3 mph94%29.98 "HgN/A
7:00 PM72 °FBroken clouds.3 mph88%29.98 "HgN/A
6:30 PM72 °FScattered clouds.3 mph88%29.95 "HgN/A
6:00 PM72 °FBroken clouds.6 mph88%29.98 "HgN/A
5:30 PM72 °FBroken clouds.7 mph94%29.95 "HgN/A
5:00 PM73 °FScattered clouds.8 mph89%29.98 "HgN/A
4:30 PM73 °FPassing clouds.9 mph83%29.98 "HgN/A
4:00 PM75 °FPassing clouds.10 mph83%29.98 "HgN/A
3:30 PM75 °FPassing clouds.10 mph83%29.98 "HgN/A
3:00 PM73 °FPassing clouds.12 mph89%29.98 "HgN/A
2:30 PM75 °FPassing clouds.10 mph83%29.98 "HgN/A
2:00 PM75 °FPassing clouds.13 mph78%30.01 "HgN/A
1:30 PM73 °FPassing clouds.13 mph83%30.01 "HgN/A
1:00 PM75 °FPassing clouds.10 mph83%30.01 "HgN/A
12:30 PM73 °FPassing clouds.12 mph89%30.01 "HgN/A
12:00 PM73 °FPassing clouds.13 mph89%30.01 "HgN/A
11:30 AM75 °FBroken clouds.7 mph89%30.01 "HgN/A
11:00 AM73 °FBroken clouds.8 mph89%30.04 "HgN/A
10:30 AM72 °FPartly sunny.6 mph94%30.04 "HgN/A
10:00 AM70 °FLight rain. Scattered clouds.8 mph100%30.04 "HgN/A
9:30 AM72 °FLight rain. Broken clouds.8 mph88%30.04 "HgN/A
9:00 AM72 °FBroken clouds.7 mph88%30.04 "HgN/A
Weather by CustomWeather, © 2014

See weather overviewHow to use our weather pages